M I D A S
Marine Information and Data Acquisition System
Tripno 220 of the Zeeleeuw from 2002-02-21 08:39:20 to 2002-02-21 10:52:40
Back to CruiseResearch ActivitiesStationsMapUnderway DataData graphs

EquipmentUnitsComments
TimeDGPSUTC
LatitudeDGPSDM.mWGS84
LongitudeDGPSDM.mWGS84
SpeedMeteo Stationm/sRelative wind speed
DirectionMeteo StationdegRelative wind direction
TemperatureMeteo Stationdeg CelciusAir temperature
PressureMeteo StationPaAtmospheric pressure
HumidityMeteo Station%Relative humidity
Missing or incorrect values are displayed as -999
Metereological data collected by the RV Zeeleeuw from 2002-02-21 08:39:20 to 2002-02-21 10:52:40
Time Latitude Longitude Speed Direction Temperature Pressure Humidity
2002-02-21 08:40 51°13.698 2°55.845 4.3 281 6 101890 45
2002-02-21 08:41 51°13.71 2°55.735 1.6 221 6 101890 45
2002-02-21 08:42 51°13.737 2°55.707 6.5 111 6.1 101880 44
2002-02-21 08:43 51°13.851 2°55.617 9.9 122 6.1 101890 45
2002-02-21 08:44 51°13.99 2°55.515 10.5 114 6.1 101890 48
2002-02-21 08:45 51°14.13 2°55.41 11.3 116 6 101890 46
2002-02-21 08:46 51°14.254 2°55.271 8.6 111 6 101890 47
2002-02-21 08:47 51°14.35 2°55.078 10.7 100 6 101910 50
2002-02-21 08:48 51°14.448 2°54.919 11.7 119 5.9 101890 46
2002-02-21 08:49 51°14.552 2°54.896 11.5 141 6 101890 45
2002-02-21 08:50 51°14.644 2°54.891 10.3 124 6.1 101900 50
2002-02-21 08:51 51°14.75 2°54.892 11.7 124 6 101890 45
2002-02-21 08:52 51°14.859 2°54.912 12.2 132 6 101890 50
2002-02-21 08:53 51°14.962 2°54.9 10.3 131 6 101900 47
2002-02-21 08:54 51°15.063 2°54.862 10.9 124 6 101900 43
2002-02-21 08:55 51°15.174 2°54.795 12.3 123 6 101890 46
2002-02-21 08:56 51°15.307 2°54.723 10.6 118 6 101900 44
2002-02-21 08:57 51°15.441 2°54.67 12.3 129 6 101900 48
2002-02-21 08:58 51°15.581 2°54.637 13 123 6 101890 45
2002-02-21 08:59 51°15.714 2°54.589 11.3 120 6.1 101910 51
2002-02-21 09:00 51°15.844 2°54.529 11.5 129 6 101910 46
2002-02-21 09:01 51°15.981 2°54.469 10.6 131 6 101900 48
2002-02-21 09:02 51°16.119 2°54.388 11.9 129 6 101910 47
2002-02-21 09:03 51°16.253 2°54.308 9.6 128 6 101910 44
2002-02-21 09:04 51°16.307 2°54.266 6.9 108 6 101920 48
2002-02-21 09:05 51°16.312 2°54.243 7.2 114 6 101910 43
2002-02-21 09:06 51°16.306 2°54.223 6.2 134 6 101930 44
2002-02-21 09:07 51°16.292 2°54.202 6.8 150 6 101920 47
2002-02-21 09:08 51°16.277 2°54.178 7.2 134 6 101930 46
2002-02-21 09:09 51°16.268 2°54.161 6.9 133 6 101920 42
2002-02-21 09:10 51°16.265 2°54.142 5.1 113 6.1 101940 45
2002-02-21 09:11 51°16.267 2°54.116 5.9 120 6.1 101930 47
2002-02-21 09:12 51°16.269 2°54.095 6.4 137 6.1 101930 46
2002-02-21 09:13 51°16.271 2°54.076 5.8 126 6.1 101930 45
2002-02-21 09:14 51°16.273 2°54.062 6.1 129 6.1 101940 44
2002-02-21 09:15 51°16.271 2°54.047 7.8 129 6.2 101930 49
2002-02-21 09:16 51°16.267 2°54.027 7.3 108 6.1 101930 44
2002-02-21 09:17 51°16.262 2°54.003 6.5 129 6.1 101930 46
2002-02-21 09:18 51°16.259 2°53.978 6.3 122 6.2 101940 53
2002-02-21 09:19 51°16.251 2°53.956 5.3 133 6.1 101940 46
2002-02-21 09:20 51°16.235 2°53.934 6.9 133 6.1 101940 51
2002-02-21 09:21 51°16.216 2°53.909 6.4 143 6.1 101940 46
2002-02-21 09:22 51°16.194 2°53.88 6.6 149 6.2 101930 49
2002-02-21 09:23 51°16.172 2°53.852 6 179 6.1 101920 45
2002-02-21 09:24 51°16.161 2°53.847 8.4 204 6.2 101930 48
2002-02-21 09:25 51°16.139 2°53.886 7.1 203 6.2 101930 47
2002-02-21 09:26 51°16.132 2°53.978 8.8 195 6.2 101920 50
2002-02-21 09:27 51°16.11 2°54.106 6.9 197 6.3 101930 51
2002-02-21 09:28 51°16.098 2°54.244 7.9 189 6.3 101950 48
2002-02-21 09:29 51°16.089 2°54.394 8.2 190 6.4 101940 53
2002-02-21 09:30 51°16.085 2°54.544 9.2 183 6.3 101930 47
2002-02-21 09:31 51°16.074 2°54.692 7.8 199 6.3 101950 48
2002-02-21 09:32 51°16.069 2°54.839 8.8 191 6.2 101950 47
2002-02-21 09:33 51°16.058 2°54.99 6.2 193 6.2 101950 48
2002-02-21 09:34 51°16.071 2°55.134 6.6 165 6.3 101940 49
2002-02-21 09:35 51°16.092 2°55.274 7.7 163 6.3 101940 49
2002-02-21 09:36 51°16.129 2°55.405 8.3 156 6.3 101930 49
2002-02-21 09:37 51°16.166 2°55.535 9.1 163 6.3 101950 47
2002-02-21 09:38 51°16.204 2°55.66 7.1 182 6.3 101940 47
2002-02-21 09:39 51°16.218 2°55.794 7 169 6.3 101940 46
2002-02-21 09:40 51°16.251 2°55.867 6.5 164 6.4 101930 49
2002-02-21 09:41 51°16.274 2°55.921 6.7 184 6.3 101950 48
2002-02-21 09:42 51°16.287 2°55.963 5.9 181 6.3 101950 47
2002-02-21 09:43 51°16.29 2°55.976 4.4 158 6.3 101960 49
2002-02-21 09:44 51°16.287 2°55.973 5.6 172 6.3 101950 48
2002-02-21 09:45 51°16.296 2°55.985 7 170 6.2 101960 47
2002-02-21 09:46 51°16.307 2°56.056 4.7 194 6.2 101960 46
2002-02-21 09:47 51°16.271 2°56.142 1.4 239 6.2 101960 50
2002-02-21 09:48 51°16.206 2°56.175 2.4 295 6.1 101970 46
2002-02-21 09:49 51°16.131 2°56.152 2.4 8 6.2 101960 48
2002-02-21 09:50 51°16.068 2°56.076 1.7 32 6.2 101960 45
2002-02-21 09:51 51°16.028 2°55.979 3 49 6.3 101970 47
2002-02-21 09:52 51°16.002 2°55.881 5.6 45 6.3 101970 48
2002-02-21 09:53 51°15.987 2°55.802 4.5 62 6.3 101970 48
2002-02-21 09:54 51°15.98 2°55.738 6.2 75 6.2 101980 50
2002-02-21 09:55 51°15.977 2°55.681 4.8 78 6.2 101970 50
2002-02-21 09:56 51°15.975 2°55.623 4 83 6.1 101970 47
2002-02-21 09:57 51°15.974 2°55.566 3.8 93 6.1 101980 47
2002-02-21 09:58 51°15.973 2°55.511 3.4 103 6.1 101970 49
2002-02-21 09:59 51°15.973 2°55.458 3.8 107 6.1 101980 48
2002-02-21 10:00 51°15.977 2°55.4 4 107 6.1 101990 48
2002-02-21 10:01 51°15.983 2°55.337 6.2 110 6.1 101980 49
2002-02-21 10:02 51°15.995 2°55.283 4.8 127 6.1 101980 49
2002-02-21 10:03 51°16.007 2°55.236 4.4 130 6.1 101990 48
2002-02-21 10:04 51°16.025 2°55.192 4.7 132 6.1 102000 47
2002-02-21 10:05 51°16.04 2°55.149 5 141 6.2 101990 46
2002-02-21 10:06 51°16.058 2°55.102 4.7 129 6.2 101990 48
2002-02-21 10:07 51°16.076 2°55.06 5.5 137 6.2 102000 47
2002-02-21 10:08 51°16.093 2°55.02 4.7 146 6.3 102000 46
2002-02-21 10:09 51°16.108 2°54.987 4.5 148 6.3 102000 48
2002-02-21 10:10 51°16.125 2°54.954 5 138 6.3 102010 48
2002-02-21 10:11 51°16.14 2°54.92 5.7 163 6.4 102020 51
2002-02-21 10:12 51°16.174 2°54.92 4.3 168 6.3 102000 48
2002-02-21 10:13 51°16.181 2°54.996 3 213 6.3 102020 49
2002-02-21 10:14 51°16.122 2°55.065 0.8 307 6.3 102020 51
2002-02-21 10:15 51°16.025 2°55.037 2.7 49 6.3 102020 52
2002-02-21 10:16 51°15.963 2°54.923 5.9 45 6.4 102030 53
2002-02-21 10:17 51°15.934 2°54.831 2.2 79 6.3 102030 51
2002-02-21 10:18 51°15.912 2°54.758 3.8 49 6.3 102030 52
2002-02-21 10:19 51°15.89 2°54.697 6 317 6.3 102040 49
2002-02-21 10:20 51°15.871 2°54.643 4.3 44 6.3 102040 52
2002-02-21 10:21 51°15.854 2°54.594 4.3 48 6.2 102050 49
2002-02-21 10:22 51°15.836 2°54.549 5 319 6.2 102040 50
2002-02-21 10:23 51°15.819 2°54.506 5 42 6.2 102040 51
2002-02-21 10:24 51°15.801 2°54.467 5.1 48 6.2 102040 52
2002-02-21 10:25 51°15.781 2°54.428 6.9 318 6.2 102040 55
2002-02-21 10:26 51°15.765 2°54.388 5.2 317 6.2 102050 55
2002-02-21 10:27 51°15.746 2°54.351 4 52 6.2 102050 51
2002-02-21 10:28 51°15.727 2°54.314 4.8 50 6.2 102060 53
2002-02-21 10:29 51°15.709 2°54.282 4.4 43 6.2 102060 51
2002-02-21 10:30 51°15.69 2°54.25 4.8 37 6.2 102060 56
2002-02-21 10:31 51°15.665 2°54.196 7 59 6.2 102060 54
2002-02-21 10:32 51°15.543 2°54.154 1 79 6.2 102070 56
2002-02-21 10:33 51°15.373 2°54.233 3.9 118 6.2 102060 56
2002-02-21 10:34 51°15.174 2°54.345 3.1 124 6.2 102070 54
2002-02-21 10:35 51°14.964 2°54.436 2.8 118 6.2 102070 53
2002-02-21 10:36 51°14.774 2°54.599 3.3 167 6.2 102070 54
2002-02-21 10:37 51°14.593 2°54.775 4.7 177 6.2 102070 52
2002-02-21 10:38 51°14.439 2°54.967 4.6 191 6.2 102070 53
2002-02-21 10:39 51°14.317 2°55.178 5.1 155 6.2 102060 52
2002-02-21 10:40 51°14.232 2°55.313 1.4 153 6.2 102070 53
2002-02-21 10:41 51°14.166 2°55.388 0.2 250 6.3 102070 55
2002-02-21 10:42 51°14.094 2°55.442 0.1 278 6.3 102070 55
2002-02-21 10:43 51°13.999 2°55.509 1 49 6.3 102070 55
2002-02-21 10:44 51°13.9 2°55.58 0.6 81 6.4 102070 54
2002-02-21 10:45 51°13.803 2°55.655 1 214 6.4 102070 55
2002-02-21 10:46 51°13.745 2°55.737 3 282 6.4 102070 54
2002-02-21 10:47 51°13.716 2°55.794 1.9 287 6.4 102070 55
2002-02-21 10:48 51°13.702 2°55.85 1.2 257 6.3 102080 54
2002-02-21 10:49 51°13.691 2°55.899 1.9 301 6.4 102070 55
2002-02-21 10:50 51°13.689 2°55.905 1.6 289 6.4 102070 54
2002-02-21 10:51 51°13.689 2°55.905 4.1 300 6.4 102070 51
2002-02-21 10:52 51°13.689 2°55.905 5.3 291 6.4 102070 54